Location: Colorado Springs
(38.8340°N, 104.8210°W)
Time: 23:22:47
(UTC-07:00)

Vanguard 3 - Pass Details

Date: 25 October 2017
Orbit: 509 x 3263 km, 33.4° (Epoch: 17 November)

Event Time Altitude Azimuth Distance (km) Brightness Sun altitude
Rises 01:49:18 0° 218° (SW) 7,200 - -59.6°
Reaches altitude 10° 01:54:44 10° 211° (SSW) 6,189 - -59.0°
Maximum altitude 02:11:37 39° 152° (SSE) 3,741 - -57.0°
Exits shadow 02:17:49 29° 113° (ESE) 3,796 10.4 -56.1°
Drops below altitude 10° 02:23:59 10° 90° (E) 4,604 11.2 -55.3°
Sets 02:27:17 0° 83° (E) 5,262 11.7 -54.8°
